Grafton Airport
YGFN : now visible

Airfield :











YOU CAN JOIN US ON...

 
LOGIN :

Register | Disclaimer

   EN    FR    IT 

 









Legend :    VFR   Marginal VFR   IFR   Intensive IFR   Very Intensive IFR
Visi :
Ceiling :
>= 8 km
>= 3000ft
5 to 8 km
1000 to 3000 ft
1500m to 5 km
500 to 1000 ft
800 to 1500m
200 to 500 ft
< 800m
< 200 ft
Symbols :   Thunderstorms  Fog  Heavy snow  Heavy precipitations  Wind > 20 kt






- Airport Elevation : 110 ft
- IATA code : GFN


YGFN - Grafton

CURRENT METAR :
  • 011700Z AUTO 25002KT 9999 // NCD 22/22 Q1013

EXPIRED METARs :
  • 011601Z AUTO 06004KT 9999 // SCT015 23/22 Q1012
  • 011530Z AUTO 19003KT 9999 // OVC011 23/22 Q1012
  • 011500Z AUTO 20005KT 9999 // BKN013 22/21 Q1012

TAF N/A
YBBB FIR / Oceania



MET'MAP, your aeronautical weather chart ! - Copyright ORBIFLY December 2007 - Disclaimer

ORBIFLY MET'MAP TEAM :

Programming & Development : Alexandra Zaïnal
Concept & original design : Baudouin d'Aumeries
Assistance for programming : Marc-Olivier Méhu
Technical & hardware support : Manuel Goepfert

Contact : metmap@orbifly.com




SOURCES & CREDITS :

   NOAA       Earth
Advisory